Waskish, MN

10:40 PM CDT on May 22, 2017 (GMT -0500)
Waskish Municipal

Weather History for KVWU - April, 2014

Change the Weather History Date:

Saturday, April 19, 2014

  Actual Average (KBDE) Record (KBDE)
Temperature  
Mean Temperature 46 °F -  
Max Temperature 60 °F 57 °F 84 °F (1987)
Min Temperature 33 °F 31 °F 13 °F (1988)
Degree Days  
Heating Degree Days 18    
Moisture  
Dew Point 34 °F    
Average Humidity 68    
Maximum Humidity 87    
Minimum Humidity 39    
Precipitation  
Precipitation 0.13 in - - ()
Sea Level Pressure  
Sea Level Pressure 29.90 in    
Wind  
Wind Speed 16 mph (South)    
Max Wind Speed 22 mph    
Max Gust Speed 33 mph    
Visibility 10 miles    
Events Rain    
Averages and records for this station are not official NWS values.
T = Trace of Precipitation, MM = Missing Value Source: NWS Daily Summary

Daily Weather History Graph

Daily Weather History Graph

Search for Another Location

Airport or City:

Trip Planner

Search our weather history database for the weather conditions in past years. The results will help you decide how hot, cold, wet, or windy it might be!

Date:

Astronomy

Apr. 19, 2014 Rise Set
Actual Time 6:20 AM CDT 8:14 PM CDT
Civil Twilight 5:47 AM CDT 8:47 PM CDT
Nautical Twilight 5:06 AM CDT 9:28 PM CDT
Astronomical Twilight 4:21 AM CDT 10:14 PM CDT
Moon 12:09 AM CDT (4/19) 9:29 AM CDT (4/19)
Length of Visible Light 15h 00m
Length of Day
13h 53m
Waning Gibbous, 78% of the Moon is Illuminated
Apr 19
Waning Gibbous
Apr 22
Last Quarter
Apr 29
New
May 6
First Quarter
May 14
Full

Hourly Weather History & Observations

Time (CDT) Temp. Windchill Dew Point Humidity Pressure Visibility Wind Dir Wind Speed Gust Speed Precip Events Conditions
12:10 AM 39.2 °F 30.2 °F 19.4 °F 45% 30.10 in 10.0 mi East 17.3 mph 28.8 mph N/A   Overcast
12:29 AM 39.2 °F 29.8 °F 19.4 °F 45% 30.09 in 10.0 mi East 18.4 mph 24.2 mph N/A   Overcast
12:49 AM 39.2 °F 29.3 °F 21.2 °F 49% 30.08 in 10.0 mi ESE 20.7 mph 29.9 mph N/A   Overcast
1:10 AM 39.2 °F 29.8 °F 21.2 °F 49% 30.07 in 10.0 mi East 18.4 mph 27.6 mph N/A   Overcast
1:29 AM 39.2 °F 29.3 °F 19.4 °F 45% 30.07 in 10.0 mi ESE 20.7 mph 27.6 mph N/A   Overcast
1:49 AM 39.2 °F 30.5 °F 19.4 °F 45% 30.05 in 10.0 mi East 16.1 mph 25.3 mph N/A   Overcast
2:10 AM 37.4 °F 27.5 °F 23.0 °F 56% 30.04 in 5.0 mi East 18.4 mph 33.4 mph N/A Rain Light Rain
2:29 AM 35.6 °F 24.8 °F 26.6 °F 70% 30.01 in 5.0 mi East 19.6 mph 27.6 mph 0.03 in Rain Rain
2:49 AM 33.8 °F 22.2 °F 28.4 °F 81% 29.98 in 4.0 mi East 20.7 mph 26.5 mph 0.08 in   Overcast
3:10 AM 33.8 °F 22.5 °F 30.2 °F 87% 29.95 in 7.0 mi East 19.6 mph 27.6 mph 0.01 in   Overcast
3:29 AM 33.8 °F 23.2 °F 30.2 °F 87% 29.95 in 7.0 mi East 17.3 mph 23.0 mph 0.02 in   Overcast
3:49 AM 33.8 °F 22.2 °F 30.2 °F 87% 29.92 in 4.0 mi East 20.7 mph 28.8 mph 0.04 in   Overcast
4:10 AM 33.8 °F 22.2 °F 30.2 °F 87% 29.89 in 7.0 mi ESE 20.7 mph 31.1 mph 0.01 in   Overcast
4:29 AM 33.8 °F 22.5 °F 30.2 °F 87% 29.88 in 10.0 mi East 19.6 mph 25.3 mph 0.01 in   Overcast
4:49 AM 33.8 °F 24.8 °F 30.2 °F 87% 29.94 in 10.0 mi ESE 12.7 mph 17.3 mph 0.01 in Rain Light Rain
5:10 AM 35.6 °F 28.0 °F 30.2 °F 81% 29.92 in 10.0 mi ESE 10.4 mph 18.4 mph N/A   Overcast
5:29 AM 35.6 °F 27.5 °F 30.2 °F 81% 29.90 in 10.0 mi ESE 11.5 mph 18.4 mph N/A   Overcast
5:49 AM 35.6 °F 24.2 °F 30.2 °F 81% 29.89 in 10.0 mi ESE 21.9 mph 32.2 mph N/A   Overcast
6:10 AM 35.6 °F 24.5 °F 30.2 °F 81% 29.87 in 10.0 mi ESE 20.7 mph 29.9 mph N/A   Overcast
6:29 AM 35.6 °F 25.9 °F 32.0 °F 87% 29.87 in 10.0 mi ESE 16.1 mph 27.6 mph N/A   Overcast
6:49 AM 37.4 °F 28.9 °F 32.0 °F 81% 29.87 in 10.0 mi ESE 13.8 mph 21.9 mph N/A   Overcast
7:09 AM 37.4 °F 27.8 °F 32.0 °F 81% 29.87 in 10.0 mi SE 17.3 mph 28.8 mph N/A   Overcast
7:29 AM 37.4 °F 27.8 °F 32.0 °F 81% 29.86 in 10.0 mi SE 17.3 mph 28.8 mph N/A   Light Drizzle
7:49 AM 39.2 °F 30.8 °F 32.0 °F 75% 29.86 in 10.0 mi SE 15.0 mph 27.6 mph N/A   Overcast
8:09 AM 39.2 °F 30.8 °F 33.8 °F 81% 29.86 in 10.0 mi SE 15.0 mph 26.5 mph N/A   Overcast
8:29 AM 39.2 °F 30.5 °F 33.8 °F 81% 29.86 in 10.0 mi SE 16.1 mph 25.3 mph N/A   Overcast
8:49 AM 41.0 °F 32.8 °F 33.8 °F 76% 29.85 in 10.0 mi SE 16.1 mph 24.2 mph N/A   Overcast
9:09 AM 41.0 °F 33.9 °F 35.6 °F 81% 29.85 in 10.0 mi SE 12.7 mph 23.0 mph N/A   Overcast
9:29 AM 42.8 °F 35.8 °F 35.6 °F 76% 29.85 in 10.0 mi SSE 13.8 mph 24.2 mph N/A   Overcast
9:49 AM 42.8 °F 36.6 °F 37.4 °F 81% 29.84 in 10.0 mi SE 11.5 mph 32.2 mph N/A   Overcast
10:09 AM 44.6 °F 37.8 °F 37.4 °F 76% 29.84 in 10.0 mi SSE 15.0 mph 26.5 mph N/A   Overcast
10:29 AM 44.6 °F 39.2 °F 37.4 °F 76% 29.84 in 10.0 mi SSE 10.4 mph 20.7 mph N/A   Overcast
10:49 AM 46.4 °F 42.4 °F 37.4 °F 71% 29.84 in 10.0 mi SSE 8.1 mph 20.7 mph N/A   Overcast
11:09 AM 48.2 °F - 39.2 °F 71% 29.84 in 10.0 mi South 9.2 mph 16.1 mph N/A   Overcast
11:29 AM 48.2 °F - 39.2 °F 71% 29.83 in 10.0 mi SSE 10.4 mph 21.9 mph N/A   Overcast
11:50 AM 51.8 °F - 39.2 °F 62% 29.83 in 10.0 mi South 11.5 mph 20.7 mph N/A   Overcast
12:09 PM 51.8 °F - 41.0 °F 67% 29.83 in 10.0 mi South 11.5 mph 19.6 mph N/A   Overcast
12:29 PM 55.4 °F - 42.8 °F 63% 29.83 in 10.0 mi SSE 9.2 mph 19.6 mph N/A   Overcast
12:50 PM 57.2 °F - 42.8 °F 59% 29.82 in 10.0 mi South 10.4 mph 19.6 mph N/A   Scattered Clouds
1:09 PM 60.8 °F - 44.6 °F 55% 29.82 in 10.0 mi South 12.7 mph 19.6 mph N/A   Clear
1:29 PM 60.8 °F - 42.8 °F 52% 29.83 in 10.0 mi SW 12.7 mph 19.6 mph N/A   Scattered Clouds
1:50 PM 55.4 °F - 37.4 °F 51% 29.84 in 10.0 mi WSW 15.0 mph 20.7 mph N/A   Clear
2:09 PM 53.6 °F - 37.4 °F 54% 29.84 in 10.0 mi SW 13.8 mph 20.7 mph N/A   Clear
2:29 PM 55.4 °F - 35.6 °F 47% 29.84 in 10.0 mi SW 17.3 mph 20.7 mph N/A   Clear
2:50 PM 60.8 °F - 35.6 °F 39% 29.84 in 10.0 mi SW 18.4 mph - N/A   Clear
3:09 PM 60.8 °F - 35.6 °F 39% 29.84 in 10.0 mi SW 16.1 mph - N/A   Clear
3:29 PM 60.8 °F - 35.6 °F 39% 29.84 in 10.0 mi SW 13.8 mph 21.9 mph N/A   Clear
3:49 PM 55.4 °F - 35.6 °F 47% 29.85 in 10.0 mi SW 15.0 mph 18.4 mph N/A   Clear
4:09 PM 57.2 °F - 35.6 °F 44% 29.85 in 10.0 mi SW 15.0 mph 20.7 mph N/A   Clear
4:29 PM 57.2 °F - 35.6 °F 44% 29.86 in 10.0 mi SW 15.0 mph - N/A   Clear
4:49 PM 57.2 °F - 33.8 °F 41% 29.86 in 10.0 mi SW 17.3 mph 23.0 mph N/A   Clear
5:09 PM 53.6 °F - 35.6 °F 51% 29.87 in 10.0 mi SW 13.8 mph 19.6 mph N/A   Clear
5:29 PM 53.6 °F - 35.6 °F 51% 29.87 in 10.0 mi WSW 16.1 mph 20.7 mph N/A   Clear
5:49 PM 53.6 °F - 35.6 °F 51% 29.88 in 10.0 mi SW 15.0 mph 21.9 mph N/A   Clear
6:09 PM 51.8 °F - 35.6 °F 54% 29.88 in 10.0 mi SW 13.8 mph 19.6 mph N/A   Clear
6:29 PM 51.8 °F - 35.6 °F 54% 29.88 in 10.0 mi WSW 12.7 mph - N/A   Clear
6:49 PM 50.0 °F - 35.6 °F 58% 29.89 in 10.0 mi SW 13.8 mph 19.6 mph N/A   Clear
7:09 PM 48.2 °F - 35.6 °F 62% 29.90 in 10.0 mi WSW 8.1 mph - N/A   Clear
7:29 PM 44.6 °F 39.7 °F 35.6 °F 71% 29.90 in 10.0 mi SW 9.2 mph - N/A   Clear
7:49 PM 42.8 °F 37.5 °F 35.6 °F 76% 29.90 in 10.0 mi WSW 9.2 mph - N/A   Clear
8:09 PM 46.4 °F 42.4 °F 37.4 °F 71% 29.91 in 10.0 mi WSW 8.1 mph - N/A   Clear
8:29 PM 44.6 °F 39.7 °F 37.4 °F 76% 29.92 in 10.0 mi WSW 9.2 mph - N/A   Clear
8:49 PM 44.6 °F 40.7 °F 35.6 °F 71% 29.94 in 10.0 mi West 6.9 mph - N/A   Clear
9:09 PM 41.0 °F 38.0 °F 35.6 °F 81% 29.94 in 10.0 mi West 4.6 mph - N/A   Clear
9:29 PM 42.8 °F 41.1 °F 37.4 °F 81% 29.95 in 10.0 mi WSW 3.5 mph - N/A   Clear
9:49 PM 41.0 °F 37.1 °F 37.4 °F 87% 29.96 in 10.0 mi WSW 5.8 mph - N/A   Clear
10:09 PM 42.8 °F 38.0 °F 37.4 °F 81% 29.96 in 10.0 mi WSW 8.1 mph - N/A   Clear
10:29 PM 42.8 °F 37.5 °F 37.4 °F 81% 29.96 in 10.0 mi WSW 9.2 mph - N/A   Clear
10:49 PM 42.8 °F 37.0 °F 37.4 °F 81% 29.96 in 10.0 mi WSW 10.4 mph - N/A   Clear
11:09 PM 42.8 °F 36.6 °F 37.4 °F 81% 29.97 in 10.0 mi SW 11.5 mph - N/A   Clear
11:30 PM 42.8 °F 36.6 °F 37.4 °F 81% 29.97 in 10.0 mi WSW 11.5 mph - N/A   Clear
11:49 PM 42.8 °F 37.0 °F 37.4 °F 81% 29.98 in 10.0 mi SW 10.4 mph - N/A   Clear